PSAT2 (NO-104) (44354 NORAD) Tracking and Keplerian Element Data

This shows tracking and keplerian element data for the satellite.

Feedback or suggestion? Click here.




ElementValue
Catalog44354
NamePSAT2 (NO-104)
Epoch Orbit4237
Epoch Day93.48691688
Epoch Year2020
RAAN159.0672
Inclination28.5315
Eccentricity0.0369846
Argument of Perigee220.3813
Mean Anonmoly136.876
Mean Motion15.0199276
Decay Rate0.000152
L11 44354U 19036R 20093.48691688 .00015200 00000-0 22672-3 0 9993
L22 44354 28.5315 159.0672 0369846 220.3813 136.8760 15.01992760 42378

Live tracking and technical data element details for PSAT2 (NO-104) (NORAD 44354). PSAT2 (NO-104) can be tracked NOW for your location showing map with azimuth and elevation plus other details from your city location.

Track the satellite on the map from your city or location and see movement details for azimuth, elevation, latitude, longitude, range, height, and movement on the map or in text.







IsCatalogInMostPopularTable: catalog: 44354, numindb: 59
Update: records affected: 1



GetName: 44354 PSAT2 (NO-104)

Hit Count: updated at: Thu, 09 Apr 2020 06:02:10 GMT